Location: Newark
(42.8481°N, 0.4872°E)
Time: 14:42:29
(UTC+00:00)

Vanguard 2 Rocket - Visible Passes

Search period start: 31 October 2020 00:00
Search period end: 10 November 2020 00:00
Orbit: 554 x 3326 km, 32.9° (Epoch: 30 October)

Date Brightness Start Highest point End Pass type
(mag) Time Alt. Az. Time Alt. Az. Time Alt. Az.
31 Oct 7.8 17:45:08 10° SW 17:47:58 19° S 17:50:56 10° ESE visible
31 Oct 8.9 19:56:41 10° WSW 19:57:00 12° SW 19:57:00 12° SW visible
01 Nov 7.7 18:57:47 10° SW 19:00:45 22° S 19:00:45 22° S visible
02 Nov 7.7 17:58:46 10° SW 18:01:50 21° S 18:04:32 12° SE visible
03 Nov 8.0 19:11:57 10° SW 19:14:07 18° SSW 19:14:07 18° SSW visible
04 Nov 7.8 18:12:42 10° SW 18:15:42 20° S 18:17:55 14° SE visible
05 Nov 7.9 17:13:15 10° SW 17:16:37 22° S 17:19:41 10° SE visible
05 Nov 8.5 19:26:34 10° SW 19:27:34 13° SSW 19:27:34 13° SSW visible
06 Nov 8.1 18:26:54 10° SW 18:29:34 17° SSW 18:31:25 13° SSE visible
07 Nov 8.0 17:27:09 10° WSW 17:30:28 21° S 17:33:28 10° SE visible
08 Nov 8.4 18:41:42 10° SW 18:43:22 12° SSW 18:45:01 10° S visible
09 Nov 8.3 17:41:21 10° WSW 17:44:16 17° SSW 17:46:56 10° SSE visible
